Погода в Дир-Лейк

Канада     49°11′21″N   57°25′36″W
темп.,
°C
ветер,
м/с
пор.,
м/с
влажн.,
%
обл.,
%
осадки,
мм/ч
давл.,
гПа
погр.,
м
17 мая, пн
пн1700:30+3св2487100 0.0 1030351
03:30+3св249295 0.0 1030283
06:30+2всв139384 0.0 1030213
09:30+6в117173 0.0 1030699
12:30+12в114497 0.1 10291799
15:30+12ю2142100 0.1 10271901
18:30+11ююз124797 0.1 10261581
21:30+5юз258899 0.3 1027132
18 мая, вт
вт1800:30+4сз119198 0.0 102716
03:30+4в018988 0.0 102653
06:30+3юз119244 0.0 102524
09:30+9ююв22575 0.0 1024924
12:30+13ю334192 0.0 10221881
15:30+12ююз3348100 0.0 10211559
18:30+11ю335190 0.0 10211232
21:30+7ююз26748 0.0 1022337
19 мая, ср
ср1900:30+3ююв119452 0.0 102211
03:30+1вюв119686 0.0 102311
06:30+3всв128785 0.0 1023103
09:30+8ююв1365100 0.0 1023850
12:30+10ююз3360100 0.0 10231181
15:30+8зюз1385100 0.9 1024336
18:30+7всв0196100 6.5 102559
21:30+6ююз2395100 10.4 1027125
20 мая, чт
чт2000:30+6вюв1195100 0.3 102819
03:30+6в1196100 0.4 102920
06:30+6в0096100 0.0 103048
09:30+10вюв118092 0.0 1030659
12:30+13юз126297 0.1 10301286
15:30+13юз2358100 0.1 10301292
18:30+13зюз4459100 0.0 1030997
21:30+7зюз23848 0.0 103156
21 мая, пт
пт2100:30+5зюз23916 0.0 103153
03:30+4зюз22950 0.0 103144
06:30+5зюз25935 0.0 1031134
09:30+13зюз47555 0.0 1031641
12:30+17зюз56434 0.0 1030915
15:30+19з56455 0.0 1029988
18:30+16з47565 0.0 1028726
21:30+9з22845 0.0 102929